Presure
203 201 181 194 205 214 205 212 209 199 195 189 183 181 187 105 84 77 87 83 79 83 145 182 186 187 162 191 110 160 104 95 188 126 166 96 139 117 194 110 117 143 151 139 138 107 97 126 118
178 177 181 190 173 173 172 203 227 198 207 205 201 190 187 188 185 181 183 86 82 83 87 86 84 158 179 160 160 148 157 127 158 158 192 167 132 145 109 97 100 105 123 130 126 127 127 125 128
189 185 178 178 186 183 182 180 174 187 187 212 195 216 215 203 201 193 197 184 183 174 109 81 129 86 181 166 153 182 170 184 175 183 100 164 121 158 168 110 139 98 99 106 125 121 112 125 130
210 212 220 235 244 228 181 265 253 170 190 210 209 182 182 223 213 212 205 199 196 201 197 85 163 187 118 178 182 163 168 152 158 189 126 88 133 124 91 101 136 123 135 102 113 116 128 124 124
218 208 248 217 203 201 219 201 200 203 239 239 196 205 214 209 223 223 210 216 205 203 198 201 199 179 87 81 81 84 131 160 161 160 152 192 180 141 122 137 103 129 96 95 128 112 161 116 129
210 219 223 240 222 206 225 225 229 252 242 237 228 269 262 266 199 239 212 226 206 212 215 214 207 203 203 201 157 93 82 84 127 184 143 161 175 123 171 153 173 94 92 161 102 167 150 133 125
194 207 238 236 204 195 218 236 220 194 212 215 212 213 215 222 245 248 258 254 276 249 201 229 225 214 205 195 201 197 99 94 95 141 93 170 134 167 166 142 150 188 140 186 139 180 135 126 133
162 191 177 177 172 189 210 198 258 239 256 264 269 210 250 255 245 208 210 236 243 231 245 289 271 232 214 205 210 203 205 95 193 89 95 170 159 152 166 120 159 163 136 120 131 134 178 173 135
162 162 183 156 157 155 199 190 185 182 199 180 212 196 183 197 185 197 254 244 269 240 240 237 249 279 278 257 255 218 214 207 211 199 125 169 124 175 186 125 149 148 127 155 139 172 128 126 134
181 184 175 177 172 165 157 166 177 177 183 184 183 199 185 173 218 231 177 230 205 258 271 260 239 232 239 257 274 257 228 208 219 215 212 97 90 178 100 115 160 99 100 180 119 105 113 208 168
183 185 186 182 201 193 193 178 164 176 180 160 172 195 176 198 212 199 203 213 179 216 201 264 266 268 228 221 233 264 307 242 222 234 235 218 163 123 115 174 107 160 102 100 94 91 144 139 105
170 189 177 177 164 170 177 174 192 152 184 152 164 194 208 176 173 200 205 190 204 175 211 249 248 262 267 261 228 215 248 302 266 227 205 229 207 206 228 182 206 210 118 188 142 120 97 109 182
180 162 185 174 164 172 183 176 176 180 187 194 191 179 181 203 210 176 211 207 223 230 210 219 239 246 263 262 254 238 221 221 282 279 241 221 231 211 201 199 143 145 82 87 102 160 101 126 125
186 174 171 180 173 179 182 180 171 175 185 193 189 171 190 188 197 190 196 208 209 215 218 258 218 250 238 260 257 249 246 248 235 263 290 252 226 223 208 214 196 177 165 211 204 104 87 90 91
183 171 178 181 181 164 172 175 182 188 189 196 194 175 178 205 208 205 204 200 205 217 177 231 247 276 253 187 251 249 243 235 251 242 230 271 272 243 228 213 208 202 198 205 214 214 205 154 153
163 163 179 176 162 162 175 164 163 176 162 180 188 194 177 180 198 189 209 202 203 208 221 305 247 274 259 246 257 245 237 242 233 233 218 247 262 280 248 234 242 209 202 203 201 199 203 186 199
168 171 166 163 167 168 169 170 171 179 181 177 184 190 189 193 205 191 213 204 203 218 234 302 294 282 282 270 182 251 239 237 236 244 237 252 236 263 280 266 231 238 223 204 204 203 198 196 190
162 167 159 172 170 174 171 163 160 174 179 185 173 182 195 203 188 188 210 216 215 221 221 335 304 294 278 274 235 209 243 235 232 239 240 238 248 252 263 266 276 235 219 226 222 207 203 200 200
157 166 168 143 157 165 176 169 167 169 181 180 178 189 191 192 193 192 193 202 209 214 185 330 213 323 294 279 261 261 249 238 233 243 232 254 203 253 252 231 255 277 242 221 221 224 211 201 202
156 156 164 170 158 163 167 166 176 172 179 188 188 190 196 193 198 206 212 218 211 256 266 238 344 337 313 291 263 266 258 250 238 244 245 250 242 234 247 246 218 259 264 269 221 219 226 216 209
160 164 154 159 165 164 157 167 168 169 177 180 184 191 198 205 200 198 209 212 214 212 319 297 318 337 323 306 299 256 226 256 253 251 244 239 246 254 252 251 258 253 262 259 271 230 217 215 224
159 157 161 168 163 164 161 167 160 167 180 185 178 188 186 192 200 189 224 197 215 271 272 335 316 320 327 312 308 303 258 198 263 247 252 253 249 254 261 240 245 209 244 262 257 269 271 223 214
165 157 161 169 166 166 169 171 169 175 179 180 186 185 194 183 187 193 189 201 215 239 262 336 312 297 292 311 301 242 291 271 279 268 266 262 254 260 266 261 261 248 244 246 259 267 273 285 248
159 165 166 168 165 167 166 168 178 172 181 172 186 186 198 195 226 203 228 209 218 297 331 272 265 292 286 289 296 298 165 289 279 279 275 274 193 280 270 236 259 267 255 253 241 236 266 274 282
163 167 156 161 165 161 170 172 158 181 183 190 183 195 200 204 202 206 219 217 213 333 319 308 303 295 289 285 291 286 279 270 298 285 238 207 266 279 280 273 274 265 261 258 255 256 237 248 268
159 163 162 164 167 162 166 166 175 182 184 185 202 200 200 199 216 220 244 221 260 331 318 305 293 292 291 288 281 275 271 269 264 255 284 275 276 160 175 270 267 262 268 269 268 268 268 262 258
161 160 161 166 166 162 172 176 179 175 189 190 196 200 212 208 219 214 280 270 314 318 318 306 298 294 288 290 279 268 272 273 268 263 260 262 257 255 256 290 269 253 278 277 274 271 274 277 276
155 150 164 169 164 170 173 169 187 186 185 185 199 192 205 220 218 226 327 330 330 321 320 310 303 299 296 290 280 268 250 263 272 263 258 254 252 252 254 255 256 251 265 284 276 275 276 289 289
167 165 163 163 172 173 175 167 187 186 178 192 180 187 194 228 210 231 339 293 338 329 322 317 308 305 302 296 285 272 252 251 261 253 251 261 259 251 248 249 247 253 259 256 257 262 263 328 338
148 172 168 173 176 170 181 185 185 195 192 193 205 182 191 225 211 222 338 267 339 336 329 323 318 311 307 299 288 272 247 249 256 257 258 255 259 266 261 253 251 249 255 268 284 264 309 268 266
Wind_Speed
13 13 13 17 25 33 36 43 49 54 58 61 64 65 65 46 37 30 40 35 29 34 58 70 67 64 62 60 43 61 42 38 57 45 56 28 58 43 48 37 40 52 50 48 45 35 30 40 35
12 12 13 16 19 21 26 35 46 46 54 57 60 64 67 70 72 73 74 40 37 38 39 40 42 57 63 61 62 59 62 67 63 58 59 53 59 56 38 32 34 37 43 46 43 43 42 42 39
5 8 14 17 22 27 29 31 32 37 41 54 49 63 66 66 68 69 74 74 72 68 51 41 57 43 67 63 58 66 67 68 65 73 40 61 58 61 60 43 61 38 37 40 45 42 42 45 45
7 10 13 10 6 7 27 29 37 35 40 47 52 50 52 63 66 70 72 76 79 79 79 49 66 73 54 66 69 67 67 65 65 70 69 41 55 61 39 38 52 53 63 41 44 43 51 47 46
5 5 14 6 16 19 17 26 29 33 29 36 46 49 53 55 63 67 67 75 78 78 79 81 81 69 53 47 40 40 61 71 70 70 61 72 72 74 62 60 47 62 43 44 55 47 57 45 50
19 10 11 15 6 10 9 12 12 7 19 26 35 25 31 43 54 63 63 69 69 76 79 83 84 83 81 81 72 57 42 42 60 80 59 69 70 65 73 65 66 48 47 67 48 64 63 58 53
35 37 19 19 3 9 23 8 11 21 22 27 31 35 38 41 36 36 41 50 61 72 72 83 85 84 81 78 84 85 61 59 56 63 47 81 67 74 70 72 73 72 71 68 70 69 68 56 60
9 35 22 28 17 22 32 36 18 30 19 18 16 28 22 24 31 46 49 45 48 53 53 53 78 89 84 78 85 90 93 64 87 55 52 80 75 71 79 67 71 66 72 60 70 66 71 71 67
11 14 24 19 20 18 39 26 20 16 38 9 38 24 16 32 22 34 33 35 35 49 51 54 55 55 65 86 82 91 96 94 94 94 68 80 66 82 69 55 71 76 70 74 71 76 69 60 55
28 34 27 9 7 13 24 10 30 26 26 19 11 46 23 27 48 32 37 35 36 38 42 48 56 58 60 62 66 82 88 91 99 97 100 60 55 83 59 61 78 50 50 82 58 52 56 65 74
47 41 40 37 50 48 48 21 25 20 34 38 24 43 16 48 55 34 48 63 33 44 44 50 50 51 62 67 64 62 65 90 92 92 96 98 80 66 66 85 56 83 55 54 55 55 72 68 58
39 52 40 37 10 21 38 36 59 40 47 43 22 53 63 25 29 52 58 19 54 58 56 52 52 54 55 59 67 68 63 63 85 96 90 96 95 94 83 81 91 89 66 87 69 69 56 54 81
44 24 48 38 22 31 54 42 45 54 61 68 60 38 40 65 73 31 68 64 79 62 49 58 55 53 56 58 61 65 70 70 64 77 91 94 96 100 94 91 73 70 40 54 56 73 61 62 55
62 48 44 58 45 49 57 57 41 49 66 72 60 30 60 49 66 40 52 71 68 68 72 59 62 57 60 54 58 63 63 64 69 68 66 92 95 99 100 99 93 81 82 94 90 63 54 53 54
60 57 60 65 64 36 54 60 68 71 71 76 77 43 49 79 81 75 66 64 69 75 56 74 55 52 56 72 57 60 66 68 62 70 76 69 85 95 97 101 102 98 97 94 90 89 89 79 82
45 49 62 63 45 45 67 51 45 71 38 70 78 82 47 55 80 52 79 68 69 77 74 43 66 51 56 61 58 62 66 68 68 69 77 71 71 73 95 94 98 104 102 101 95 91 91 95 94
65 68 56 53 56 61 61 62 70 82 82 75 84 86 79 82 89 74 89 67 75 85 87 47 48 51 52 57 64 64 67 69 68 69 72 68 77 69 69 89 94 96 107 108 104 101 97 97 98
61 68 49 74 69 73 71 54 53 81 84 87 67 78 92 95 77 72 92 89 85 87 78 48 49 55 55 60 69 73 70 71 73 71 72 72 70 70 67 70 75 97 101 101 111 109 107 103 101
48 69 75 52 53 69 85 73 75 80 92 91 84 93 91 91 86 80 80 82 83 85 64 50 60 55 61 61 68 72 73 74 73 75 71 72 73 69 70 83 75 71 102 101 102 110 115 106 106
50 50 73 80 59 70 80 71 94 90 98 99 98 98 99 95 91 96 97 99 84 86 80 85 48 50 58 68 66 73 79 78 74 76 79 77 74 75 74 75 85 76 78 85 104 104 108 115 116
62 73 52 65 78 75 75 83 89 91 97 96 99 100 103 104 102 93 102 99 96 75 58 63 47 44 49 60 68 71 67 81 82 83 81 75 77 74 77 77 77 77 77 84 80 109 108 109 111
63 59 74 84 77 80 75 90 77 92 99 97 92 101 94 99 104 81 110 82 96 81 80 49 47 48 47 54 60 67 73 69 85 77 83 85 80 78 77 78 79 88 81 80 86 84 91 113 113
72 63 77 87 86 87 94 94 93 95 97 96 99 101 104 93 92 95 82 89 102 104 79 49 47 45 46 50 52 63 64 70 76 82 83 86 80 78 82 78 80 81 80 80 81 82 82 83 108
63 78 83 87 85 89 88 88 95 93 98 86 104 104 111 106 113 102 110 97 103 77 50 65 53 45 46 49 52 52 65 63 69 75 79 77 58 76 74 71 79 82 83 82 82 82 81 85 85
75 81 68 80 87 78 92 92 77 101 102 105 99 108 112 109 105 100 104 100 94 50 51 48 44 45 47 49 52 55 55 56 60 65 63 62 69 72 75 75 78 79 82 83 85 82 86 80 81
76 80 84 84 88 80 92 92 99 100 100 101 110 114 112 106 114 112 119 101 93 46 48 47 45 45 46 48 50 53 54 56 56 58 65 68 71 53 54 73 75 76 80 83 86 87 86 85 81
75 76 82 90 88 82 98 103 98 91 103 106 109 112 120 117 118 114 96 92 60 52 45 44 44 45 46 48 49 52 55 54 56 58 62 63 64 67 67 77 74 69 80 83 85 85 88 89 89
72 65 88 93 87 95 92 93 103 102 100 98 114 110 118 120 120 122 78 70 58 52 48 45 44 45 46 47 50 52 52 53 55 58 61 62 64 65 67 69 68 69 73 81 80 82 85 92 93
92 90 88 84 93 101 92 88 102 105 91 111 96 103 114 119 118 124 77 78 59 54 50 48 45 45 46 45 48 52 53 53 55 57 60 62 64 66 67 68 67 70 72 71 70 72 72 77 79
71 97 92 95 98 91 106 110 104 113 112 110 117 94 106 123 118 119 75 85 64 58 53 50 47 46 45 45 48 51 52 55 58 60 62 64 65 67 68 69 70 69 70 74 74 70 71 70 70
Wind_Direction
210 234 220 233 242 237 241 237 237 239 241 244 246 249 250 244 246 257 246 249 259 254 255 255 254 252 255 249 257 258 248 248 248 244 258 251 246 241 250 236 243 248 246 245 246 246 252 248 252
179 196 223 251 228 237 240 239 236 241 243 246 245 247 248 248 249 253 255 257 257 256 255 255 259 255 252 255 257 255 258 233 256 259 253 252 241 255 240 246 247 247 245 246 246 247 249 250 249
235 229 224 230 240 242 247 247 248 257 258 248 254 248 249 253 253 256 254 261 262 258 251 267 254 260 257 258 254 249 247 251 249 252 248 257 250 245 254 240 251 246 247 248 248 251 250 251 252
268 242 219 186 142 217 261 251 249 263 257 255 256 259 258 254 256 252 252 256 260 258 257 252 256 255 248 260 257 252 254 251 245 251 248 249 253 250 248 243 241 254 252 246 249 251 252 251 251
29 332 64 284 268 271 280 273 275 273 268 262 270 267 262 261 262 257 259 254 257 258 260 259 258 255 256 260 260 260 251 250 250 253 243 251 251 237 250 252 250 254 246 250 255 251 251 253 252
69 50 49 58 33 320 315 303 303 339 291 280 273 297 285 274 267 265 264 259 261 259 258 256 256 257 258 257 254 258 256 255 251 250 241 251 248 254 251 255 244 248 249 250 250 252 254 256 252
63 56 61 61 345 16 28 342 304 298 290 278 278 280 279 278 284 278 275 271 268 264 262 258 257 255 255 255 256 256 257 258 259 252 250 250 244 252 251 246 251 252 245 250 252 251 257 259 257
14 70 72 83 71 54 25 52 47 18 14 9 348 322 293 292 289 287 280 278 275 268 270 267 260 256 256 254 251 253 256 254 251 254 253 247 246 248 254 255 256 247 243 254 253 257 250 255 257
2 353 52 318 309 301 36 44 69 62 21 73 5 21 43 11 359 352 297 285 293 274 273 269 268 262 257 252 252 251 252 254 253 253 253 248 251 248 250 247 252 248 253 242 251 259 257 256 253
58 50 25 67 18 279 296 292 355 330 351 25 35 4 315 275 350 325 293 339 326 287 280 276 267 264 263 257 254 247 248 251 252 251 252 253 254 249 252 249 250 248 246 257 254 253 254 242 250
37 32 37 30 24 29 21 15 276 4 5 280 267 355 282 350 352 344 355 348 266 326 324 287 280 274 261 259 259 253 248 244 248 248 248 251 253 252 252 250 246 250 249 248 246 250 252 253 247
35 27 27 23 314 12 20 355 10 279 2 282 263 356 355 279 256 357 355 312 340 269 333 288 285 278 273 267 257 254 254 251 245 246 249 243 251 253 245 250 251 253 253 248 254 254 252 254 252
24 22 24 23 5 355 17 10 5 4 3 3 359 331 334 351 350 281 348 349 341 333 305 326 288 287 272 271 267 258 252 251 252 248 243 246 240 248 251 252 248 250 257 250 250 247 248 256 256
24 24 18 16 11 9 12 11 2 0 0 1 356 310 352 349 351 344 345 347 345 341 338 300 279 281 281 266 267 265 261 255 250 248 248 241 243 241 247 244 250 247 250 248 245 250 255 256 256
16 21 16 15 13 360 9 7 4 2 0 357 355 340 343 349 348 345 344 346 344 339 261 324 295 275 271 269 260 260 262 256 254 249 245 247 244 241 241 242 245 246 250 249 244 246 242 246 248
14 12 12 15 9 1 9 358 347 359 333 354 353 352 337 339 346 332 343 343 343 334 329 284 307 271 261 267 251 253 256 257 254 252 246 246 245 245 241 240 240 242 247 248 248 245 242 245 245
13 13 11 5 9 5 4 3 360 358 354 350 350 349 348 349 347 343 341 334 341 337 329 289 271 263 253 246 255 247 251 255 256 254 252 247 246 244 245 241 239 239 238 246 247 246 246 244 248
12 11 9 7 3 3 2 353 346 356 352 351 344 344 346 344 345 340 341 338 336 334 332 283 279 255 254 244 251 258 248 250 253 253 253 251 250 246 243 243 242 237 236 238 242 245 245 246 245
6 7 6 347 355 359 357 1 356 352 351 349 346 346 345 343 340 342 338 340 336 337 290 291 268 256 244 244 245 242 246 250 257 251 255 251 251 246 244 243 239 243 236 236 238 240 243 247 247
3 356 4 359 356 356 354 357 355 353 349 346 345 344 342 340 339 340 337 340 336 318 316 323 280 269 252 246 242 242 242 247 256 252 252 252 253 251 251 243 242 239 239 240 237 238 240 241 245
3 2 355 356 355 357 350 353 355 351 347 346 345 343 340 334 338 336 338 337 338 330 311 306 281 276 261 254 248 246 251 248 249 251 253 254 253 251 249 250 242 241 240 237 239 236 237 240 242
2 357 357 354 354 355 352 353 350 347 344 343 343 342 342 339 338 335 332 336 338 322 319 298 282 274 263 255 253 248 251 261 251 259 254 253 257 254 247 245 246 243 241 240 238 238 238 237 239
357 358 357 350 352 350 349 350 350 345 344 344 342 339 339 338 337 336 334 334 332 329 323 296 285 275 270 263 256 260 253 255 253 254 255 257 258 255 247 247 244 245 245 247 242 241 241 242 239
356 355 352 350 351 348 347 349 345 345 343 339 340 339 338 336 330 333 330 331 331 321 305 309 306 275 269 263 258 253 264 252 254 254 258 260 248 252 248 248 245 245 247 248 244 241 245 242 242
356 351 352 351 348 346 346 346 340 343 342 341 338 339 337 334 332 331 331 330 331 315 306 296 289 280 271 267 264 262 261 259 252 255 258 261 259 256 254 251 248 247 247 248 249 249 243 243 247
353 351 348 348 346 345 345 343 343 343 344 342 339 338 336 334 333 333 331 328 327 313 306 296 292 282 274 267 264 263 262 261 260 261 256 259 260 252 253 255 252 251 249 249 248 248 249 248 244
347 349 347 344 343 344 342 339 342 341 343 343 342 340 334 334 333 336 332 325 326 321 306 298 291 284 278 272 267 268 265 262 260 259 259 257 257 259 259 253 255 256 252 253 254 254 254 254 255
342 336 343 339 341 340 344 338 342 343 343 343 342 342 339 335 334 334 334 332 324 318 308 298 293 286 279 273 272 270 272 265 259 259 259 259 260 259 259 259 257 256 256 256 255 255 256 256 257
336 339 340 340 339 338 343 335 342 341 341 341 340 340 340 336 335 335 335 330 325 318 310 301 295 290 283 275 270 270 275 274 267 265 263 259 258 258 259 259 259 259 259 258 258 257 257 258 256
325 334 336 338 336 338 339 337 341 339 341 341 338 336 338 336 333 333 333 329 326 320 312 305 299 293 287 280 275 274 279 277 273 269 265 264 260 258 257 258 260 260 260 259 259 259 260 257 258